Tracking 28794 objects as of 20-Apr-2024
HD Live streaming from Space Station
objects crossing your sky now

STARLINK-1723

Track STARLINK-1723 now!
10-day predictions
STARLINK-1723 is classified as:


NORAD ID: 46333
Int'l Code: 2020-062J
Perigee: 553.4 km
Apogee: 555.3 km
Inclination: 53.1 °
Period: 95.6 minutes
Semi major axis: 6925 km
RCS: Unknown
Launch date: September 3, 2020
Source: United States (US)
Launch site: AIR FORCE EASTERN TEST RANGE (AFETR)
Your satellite tracking list
Your tracking list is empty




NASA's NSSDC Master Catalog

Two Line Element Set (TLE):
1 46333U 20062J   24110.52370556  .00013434  00000-0  91920-3 0  9999
2 46333  53.0530 230.4023 0001358  87.0090 273.1054 15.06392556200435
Source of the keplerian elements: AFSPC